Location: Peebles
(55.6412°N, 3.1714°W)
Time: 13:04:01
(UTC+00:00)

CUTE-I - Pass Details

Date: 15 December 2023
Orbit: 807 x 823 km, 98.7° (Epoch: 24 February)

Event Time Altitude Azimuth Distance (km) Brightness Sun altitude
Rises 16:20:10 0° 136° (SE) 3,331 ? -5.3°
Reaches altitude 10° 16:22:36 10° 129° (SE) 2,405 ? -5.5°
Maximum altitude 16:27:32 40° 61° (ENE) 1,188 ? -6.1°
Drops below altitude 10° 16:32:31 10° 353° (N) 2,429 ? -6.7°
Sets 16:35:00 0° 347° (NNW) 3,368 ? -7.0°
